Vertical_Velocity
3 0 -2 12 -8 -17 19 -2 5 1 9 -2 5 3 -1 1 1 0 -0 -4 -3 -2 -1 0 1 -1 -1 -0 0 -2 -2 -3 1 -1 -1 1 -1 2 0 -2 -1 -1 1
-2 -1 -10 15 18 10 1 -0 -8 6 -3 -4 5 -5 -4 0 2 1 -2 -4 -1 -2 -2 2 -1 1 -4 -3 -5 0 0 -3 -1 -2 -0 -2 -2 -0 -2 -1 -1 -3 -0
6 -3 -15 -52 20 13 17 2 0 2 6 6 1 -2 -1 -1 -5 -5 -2 -2 -1 -4 -1 -3 -1 -2 1 -0 -0 -7 -3 -1 -5 -1 -1 -1 -2 0 1 -3 -1 -1 -0
4 -9 -14 -60 34 11 5 8 5 3 -3 6 1 1 -2 -6 -4 -5 -5 -1 -4 -1 -2 -3 -4 -0 0 -2 -1 -5 -3 1 -1 -2 -0 -6 -5 -0 -1 -3 -2 1 -2
8 7 3 -1 -43 27 5 -0 -4 10 5 5 -1 -2 -2 -0 2 -1 -5 -5 1 -0 -4 2 -3 3 -4 -0 -2 -4 -0 0 -2 0 0 -1 -3 1 0 0 1 -1 -0
8 1 -2 16 11 -2 -32 1 -4 10 6 1 -1 3 1 2 -2 2 -1 -3 -4 0 3 -2 2 4 -2 2 4 -2 2 -0 4 2 -1 -1 -2 1 0 1 -2 -3 -2
2 42 36 22 2 19 -15 -16 -9 10 6 2 4 -2 2 -2 -1 -1 1 -3 -0 -1 -4 1 5 -2 -4 -0 2 1 0 0 -1 -1 -6 -2 -2 -1 2 1 2 2 1
10 13 12 -1 -48 31 1 12 -14 4 0 7 4 2 1 -2 -0 0 -2 -1 -3 2 -0 -1 3 4 -2 -1 2 0 -2 2 -3 -3 -1 -1 -2 -0 1 -3 -4 -2 -0
4 -3 -3 12 6 2 5 41 -9 5 -0 3 -0 2 3 -2 1 1 -3 1 -2 -1 1 -2 2 6 6 -4 -3 -4 -2 -0 -1 -3 -1 -3 1 -2 1 -2 0 -1 -1
2 1 11 25 51 9 -52 45 9 -6 -11 9 0 -1 -0 -3 -5 2 -5 -0 -7 -3 -3 1 -0 1 6 -1 -1 2 1 -1 -1 -2 -2 -4 -0 -1 -4 -2 -1 1 -1
0 -1 4 36 14 -12 -17 20 0 13 -2 3 0 2 4 0 2 3 2 -4 17 -1 -5 -4 -1 -2 3 -3 -2 -2 -2 -3 2 -1 -1 0 -4 -2 1 -0 -2 -2 -2
-3 -4 8 -53 -3 21 16 -6 -13 -3 -12 -5 1 0 4 1 1 -3 -3 1 -9 -13 -2 0 -7 -0 -2 -5 -2 -3 2 -1 -6 -3 -3 -2 -4 0 -4 1 0 -1 -0
5 -1 -4 3 -5 -33 -6 -17 -7 2 -3 -0 5 -9 5 -2 -3 0 -5 8 -5 -1 -2 -3 -3 2 -4 -2 -2 -1 1 1 5 2 -0 -2 -3 -2 1 2 1 -1 -0
6 3 -1 3 2 -5 -6 16 -4 1 -3 1 -7 4 -6 5 -6 -10 5 -0 -4 0 1 -2 -2 -1 -1 -1 -1 -1 -2 -5 -2 -4 -5 -4 -3 1 -0 -1 1 -1 -4
1 3 2 0 -1 -2 7 -0 8 -2 -1 0 -1 3 -7 6 -6 6 -3 -3 -4 -0 -3 1 -2 -1 -1 2 -3 -4 -1 0 -2 -1 -0 -0 3 -1 4 -0 -5 -3 -0
9 0 1 8 2 -7 7 -1 -3 1 11 -8 -0 9 11 -12 -3 6 -8 -2 -1 -4 1 1 -3 -2 0 1 0 -4 -0 -2 -1 -1 0 2 -1 1 1 -1 2 -6 -0
6 1 -1 1 2 4 1 7 -14 5 4 -2 5 10 -5 -5 4 -6 2 -2 3 1 1 -1 -2 0 -2 -0 -2 1 -3 -4 -3 0 -2 2 -4 -5 1 -3 -2 1 0
-2 4 6 2 -4 6 -5 8 2 -4 -4 -7 6 4 -3 11 -5 3 0 -2 -1 -2 2 -1 -1 -4 1 -1 3 -4 -4 -2 -2 4 -1 -0 -2 -2 -1 0 -3 -0 0
4 -1 -0 -4 -1 -2 -8 -11 -6 8 -3 2 5 1 -1 -2 3 3 -9 -3 -3 -2 -2 -1 -2 -2 -1 -1 -1 3 -1 -4 -2 -1 -2 -5 -2 -3 -0 1 -1 -0 -2
-2 -3 5 6 4 0 -0 7 3 9 10 3 -5 -8 -1 -7 4 -8 -1 4 1 3 -1 -3 -0 -1 -0 -1 0 -1 -0 8 6 -0 -5 -6 -5 -1 -3 -2 -0 2 0
-4 -4 2 -1 1 -1 -4 -4 2 -16 -1 -4 4 -7 -3 5 6 3 4 2 4 -5 -5 1 3 1 -1 0 6 6 3 -2 0 2 -1 3 1 -2 -3 -6 -5 1 2
-2 -0 0 -3 -2 1 1 -0 2 -1 -2 -7 -3 -3 1 -1 -4 -0 0 0 -3 -6 2 3 1 1 3 6 1 3 2 3 -0 -0 -0 1 -2 2 3 -4 -3 -1 -2
-1 -0 0 2 -3 -0 -1 6 6 9 11 1 -4 -5 -7 1 0 -0 1 4 4 5 0 -1 5 5 3 3 3 2 -2 -6 -0 -1 0 -1 1 -5 -1 1 -0 1 2
-3 1 2 -2 5 -1 -0 -3 -1 1 -3 -2 3 -12 1 -2 -3 -4 1 1 1 -1 -1 3 4 -1 3 6 4 -5 -3 -5 -7 -4 -3 -1 1 1 3 2 -2 -2 -2
-0 -8 -3 -6 -1 6 -6 -2 -3 -8 -6 2 -5 4 4 4 1 6 3 1 1 -0 4 5 0 -3 -4 -1 -7 3 2 3 4 2 -8 -8 -1 1 -0 0 2 4 3
-3 -2 -3 -10 -9 -4 1 -9 -6 -5 -3 -5 -5 -4 -2 2 5 4 2 1 7 -0 2 2 3 0 -3 4 6 -0 -3 -0 -3 -5 -1 -1 -5 -6 5 5 2 6 6
Height
1500 1506 1513 1510 1515 1529 1522 1521 1523 1523 1520 1522 1523 1523 1529 1531 1535 1537 1541 1544 1546 1549 1551 1553 1554 1554 1556 1556 1556 1557 1556 1558 1558 1558 1558 1558 1559 1560 1559 1560 1560 1560 1560
1501 1507 1514 1522 1519 1519 1522 1519 1525 1523 1522 1524 1523 1525 1531 1534 1538 1541 1543 1546 1549 1551 1554 1556 1557 1557 1557 1558 1559 1561 1559 1559 1560 1561 1561 1560 1560 1562 1561 1562 1562 1562 1563
1500 1507 1509 1517 1523 1523 1520 1521 1524 1522 1523 1524 1523 1526 1532 1535 1539 1544 1548 1550 1551 1554 1555 1558 1560 1561 1559 1561 1560 1561 1562 1562 1563 1564 1563 1562 1563 1565 1564 1564 1564 1564 1566
1499 1501 1502 1513 1522 1520 1521 1523 1523 1522 1524 1525 1526 1529 1532 1536 1541 1545 1550 1554 1555 1556 1558 1560 1561 1565 1563 1563 1564 1564 1565 1565 1566 1567 1565 1564 1566 1568 1567 1567 1567 1568 1567
1497 1497 1492 1492 1514 1516 1518 1522 1528 1525 1525 1523 1527 1531 1534 1538 1542 1545 1550 1555 1558 1558 1560 1562 1564 1566 1566 1566 1567 1568 1569 1568 1568 1569 1567 1567 1567 1569 1568 1569 1569 1569 1568
1496 1499 1501 1503 1504 1509 1512 1523 1529 1528 1525 1525 1528 1533 1537 1541 1545 1548 1550 1554 1559 1562 1562 1564 1567 1568 1569 1569 1570 1570 1571 1572 1572 1570 1570 1570 1571 1571 1570 1570 1570 1570 1570
1496 1502 1502 1502 1504 1497 1505 1520 1527 1528 1526 1527 1530 1536 1538 1544 1547 1552 1553 1556 1560 1562 1565 1569 1569 1569 1571 1573 1574 1573 1573 1575 1575 1573 1572 1574 1574 1574 1573 1572 1572 1572 1571
1496 1499 1504 1498 1503 1501 1501 1512 1522 1526 1527 1529 1531 1538 1541 1546 1550 1552 1556 1558 1562 1566 1567 1570 1573 1573 1573 1575 1577 1575 1575 1577 1577 1577 1576 1576 1576 1576 1575 1574 1575 1574 1573
1497 1500 1502 1507 1499 1508 1497 1509 1516 1525 1526 1531 1534 1539 1546 1548 1552 1555 1558 1561 1563 1567 1569 1572 1575 1577 1576 1575 1578 1577 1579 1579 1579 1579 1579 1579 1579 1580 1578 1577 1578 1577 1576
1498 1502 1505 1502 1494 1500 1500 1513 1515 1523 1528 1533 1536 1541 1548 1551 1555 1557 1560 1565 1564 1569 1572 1574 1576 1578 1578 1577 1579 1580 1580 1581 1581 1581 1581 1581 1582 1583 1582 1581 1581 1580 1579
1492 1497 1498 1495 1492 1496 1510 1511 1515 1522 1527 1534 1540 1545 1550 1552 1557 1559 1562 1567 1566 1569 1574 1575 1577 1579 1580 1580 1581 1583 1582 1582 1583 1583 1583 1583 1584 1585 1585 1583 1583 1582 1582
1493 1495 1498 1500 1504 1504 1509 1511 1518 1523 1531 1536 1542 1549 1552 1555 1558 1560 1564 1567 1566 1572 1575 1576 1578 1580 1581 1582 1583 1584 1585 1585 1585 1584 1584 1586 1586 1587 1586 1586 1585 1584 1584
1491 1494 1497 1497 1498 1506 1510 1517 1522 1526 1531 1538 1542 1549 1554 1556 1558 1562 1565 1565 1567 1573 1575 1578 1579 1581 1581 1582 1583 1585 1586 1586 1586 1585 1586 1586 1587 1588 1587 1588 1586 1586 1584
1494 1494 1498 1500 1502 1507 1515 1517 1520 1527 1531 1537 1542 1549 1553 1555 1559 1563 1565 1566 1570 1573 1576 1578 1580 1581 1582 1582 1583 1585 1586 1586 1587 1587 1586 1586 1587 1588 1588 1588 1588 1586 1585
1494 1496 1497 1500 1502 1508 1514 1517 1521 1528 1531 1538 1544 1548 1553 1554 1559 1562 1565 1568 1571 1574 1576 1577 1579 1581 1582 1583 1583 1585 1586 1587 1588 1588 1586 1587 1586 1588 1588 1588 1589 1588 1587
1492 1496 1501 1502 1506 1510 1515 1519 1525 1529 1533 1539 1544 1547 1552 1555 1559 1561 1565 1568 1571 1574 1576 1577 1578 1579 1581 1583 1584 1584 1585 1587 1588 1588 1587 1588 1588 1589 1588 1589 1589 1588 1588
1493 1494 1500 1502 1506 1511 1517 1518 1523 1530 1533 1538 1542 1546 1550 1556 1557 1560 1563 1567 1571 1573 1575 1576 1577 1578 1580 1581 1583 1584 1585 1586 1587 1586 1586 1587 1587 1588 1588 1587 1588 1587 1587
1496 1496 1498 1503 1505 1512 1516 1519 1525 1529 1533 1539 1543 1544 1550 1553 1554 1558 1562 1565 1569 1572 1573 1574 1575 1577 1578 1579 1581 1582 1584 1584 1585 1584 1584 1585 1584 1584 1585 1585 1585 1586 1584
1494 1498 1500 1502 1505 1511 1517 1522 1525 1530 1534 1538 1543 1544 1548 1551 1554 1557 1560 1563 1565 1568 1570 1572 1573 1574 1576 1577 1578 1579 1581 1582 1582 1581 1582 1583 1583 1582 1583 1583 1582 1583 1581
1497 1500 1503 1505 1508 1512 1516 1520 1526 1529 1534 1538 1540 1544 1546 1550 1553 1555 1558 1561 1562 1565 1568 1569 1571 1572 1573 1575 1576 1577 1578 1579 1578 1577 1578 1579 1579 1579 1580 1580 1580 1580 1579
1497 1499 1502 1504 1507 1510 1514 1519 1522 1526 1530 1535 1538 1541 1543 1547 1550 1553 1554 1559 1560 1561 1564 1565 1567 1569 1570 1572 1573 1573 1573 1575 1576 1575 1574 1575 1574 1574 1575 1576 1577 1577 1576
1493 1496 1499 1502 1506 1509 1513 1517 1522 1524 1527 1531 1535 1538 1540 1543 1548 1551 1552 1553 1555 1558 1560 1561 1563 1564 1566 1568 1570 1572 1572 1572 1571 1571 1572 1572 1572 1571 1569 1570 1571 1571 1571
1491 1492 1495 1498 1502 1506 1510 1516 1519 1523 1526 1529 1530 1533 1535 1541 1544 1545 1549 1550 1552 1553 1555 1557 1558 1560 1562 1565 1567 1569 1569 1568 1568 1567 1567 1568 1568 1567 1566 1565 1565 1566 1566
1489 1493 1496 1498 1502 1504 1509 1512 1515 1516 1517 1522 1526 1529 1533 1537 1538 1541 1544 1546 1548 1550 1550 1553 1554 1556 1559 1559 1562 1564 1562 1562 1561 1562 1563 1564 1564 1563 1562 1561 1561 1561 1562
1487 1489 1494 1499 1503 1504 1507 1510 1513 1514 1519 1522 1525 1528 1531 1533 1535 1537 1539 1541 1543 1544 1545 1547 1548 1549 1551 1551 1552 1555 1557 1556 1555 1556 1556 1557 1557 1558 1558 1557 1557 1556 1556
1484 1488 1491 1494 1497 1501 1504 1506 1509 1511 1515 1519 1522 1524 1526 1528 1530 1532 1535 1536 1538 1539 1539 1540 1542 1543 1545 1547 1548 1549 1551 1551 1548 1549 1550 1550 1550 1552 1552 1553 1552 1553 1552